When you browse on this site, cookies collect data to enhance your experience and personalize the content and advertising you see.
Visit our Privacy Policy to learn more. By continuing to use the site, you agree to this use of cookies and data.
  • In Hungary
  • List of Countries
  • For 7 days
  • Water Temperature
  • Weather Map
  • News
  • Weather Widgets
  • user-avatar
    Login

    Hourly Weather Nevada

    Today, 7 December, Saturday

    Time Temperature Precipitation Wind Pressure Humidity
    00:00 -4°C° 0 mm 5 mps 588 mmHg 94%
    01:00 -2°C° 0 mm 5 mps 588 mmHg 94%
    02:00 -2°C° 0 mm 5 mps 588 mmHg 94%
    03:00 -2°C° 0 mm 5 mps 588 mmHg 94%
    04:00 -2°C° 0 mm 5 mps 588 mmHg 95%
    05:00 -1°C° 0 mm 5 mps 588 mmHg 96%
    06:00 -1°C° 0 mm 5 mps 588 mmHg 96%
    07:00 -1°C° 0 mm 5 mps 588 mmHg 96%
    08:00 -1°C° 0 mm 5 mps 588 mmHg 96%
    09:00 0°C° 0 mm 5 mps 588 mmHg 96%
    10:00 0°C° 0 mm 5 mps 588 mmHg 96%
    11:00 0°C° 0 mm 5 mps 587 mmHg 96%
    12:00 0°C° 0 mm 4 mps 586 mmHg 96%
    13:00 0°C° 0 mm 4 mps 586 mmHg 97%
    14:00 0°C° 0 mm 4 mps 585 mmHg 97%
    15:00 0°C° 0 mm 4 mps 585 mmHg 97%
    16:00 0°C° 0 mm 4 mps 585 mmHg 97%
    17:00 0°C° 0 mm 5 mps 585 mmHg 97%
    18:00 0°C° 0 mm 5 mps 585 mmHg 97%
    19:00 0°C° 0 mm 5 mps 585 mmHg 97%
    20:00 0°C° 0 mm 5 mps 585 mmHg 97%
    21:00 0°C° 0 mm 5 mps 585 mmHg 97%
    22:00 0°C° 0 mm 4 mps 585 mmHg 97%
    23:00 0°C° 0 mm 4 mps 585 mmHg 97%

    Tomorrow, 8 December, Sunday

    Time Temperature Precipitation Wind Pressure Humidity
    00:00 +1°C° 0 mm 3 mps 585 mmHg 96%
    01:00 +1°C° 0 mm 3 mps 584 mmHg 96%
    02:00 0°C° 0.1 mm 3 mps 584 mmHg 96%
    03:00 -1°C° 0.1 mm 2 mps 584 mmHg 96%
    04:00 -1°C° 0.1 mm 2 mps 584 mmHg 97%
    05:00 -1°C° 0.2 mm 2 mps 584 mmHg 96%
    06:00 +1°C° 0.2 mm 1 mps 584 mmHg 96%
    07:00 +1°C° 0.2 mm 1 mps 584 mmHg 95%
    08:00 +1°C° 0 mm 1 mps 584 mmHg 91%
    09:00 +2°C° 0 mm 1 mps 585 mmHg 87%
    10:00 +3°C° 0 mm 1 mps 585 mmHg 83%
    11:00 +3°C° 0.1 mm 1 mps 585 mmHg 78%
    12:00 +3°C° 0.1 mm 2 mps 585 mmHg 73%
    13:00 +3°C° 0.1 mm 2 mps 585 mmHg 67%
    14:00 +2°C° 0 mm 2 mps 584 mmHg 71%
    15:00 +1°C° 0 mm 2 mps 584 mmHg 75%
    16:00 -1°C° 0 mm 2 mps 584 mmHg 79%
    17:00 -1°C° 0 mm 2 mps 584 mmHg 82%
    18:00 -2°C° 0 mm 2 mps 584 mmHg 85%
    19:00 -3°C° 0 mm 2 mps 584 mmHg 88%
    20:00 -3°C° 0 mm 2 mps 584 mmHg 90%
    21:00 -3°C° 0 mm 2 mps 585 mmHg 91%
    22:00 -3°C° 0 mm 2 mps 585 mmHg 93%
    23:00 -3°C° 0 mm 2 mps 585 mmHg 93%

    Day after tomorrow, 9 December, Monday

    Time Temperature Precipitation Wind Pressure Humidity
    00:00 -4°C° 0 mm 2 mps 586 mmHg 93%
    01:00 -4°C° 0 mm 2 mps 586 mmHg 93%
    02:00 -4°C° 0 mm 2 mps 586 mmHg 93%
    03:00 -4°C° 0 mm 2 mps 586 mmHg 93%
    04:00 -4°C° 0 mm 2 mps 586 mmHg 94%
    05:00 -4°C° 0 mm 2 mps 587 mmHg 93%
    06:00 -5°C° 0 mm 2 mps 587 mmHg 93%
    07:00 -5°C° 0 mm 2 mps 587 mmHg 92%
    08:00 -4°C° 0 mm 2 mps 588 mmHg 86%
    09:00 -3°C° 0 mm 2 mps 588 mmHg 80%
    10:00 -1°C° 0 mm 2 mps 589 mmHg 73%
    11:00 -1°C° 0 mm 2 mps 589 mmHg 68%
    12:00 +2°C° 0 mm 1 mps 589 mmHg 62%
    13:00 +3°C° 0 mm 1 mps 589 mmHg 57%
    14:00 +2°C° 0 mm 1 mps 588 mmHg 62%
    15:00 +1°C° 0 mm 1 mps 587 mmHg 67%
    16:00 0°C° 0 mm 1 mps 587 mmHg 72%
    17:00 0°C° 0 mm 1 mps 587 mmHg 74%
    18:00 -1°C° 0 mm 1 mps 587 mmHg 75%
    19:00 -2°C° 0 mm 0 mps 587 mmHg 77%
    20:00 -2°C° 0 mm 0 mps 588 mmHg 74%
    21:00 -2°C° 0 mm 0 mps 588 mmHg 71%
    22:00 -2°C° 0 mm 0 mps 588 mmHg 68%
    23:00 -2°C° 0 mm 0 mps 588 mmHg 65%

    10 December, Tuesday

    Time Temperature Precipitation Wind Pressure Humidity
    00:00 -2°C° 0 mm 0 mps 588 mmHg 62%
    01:00 -1°C° 0 mm 1 mps 588 mmHg 59%
    02:00 -2°C° 0 mm 0 mps 588 mmHg 57%
    03:00 -2°C° 0 mm 0 mps 588 mmHg 55%
    04:00 -2°C° 0 mm 0 mps 588 mmHg 53%
    05:00 -2°C° 0 mm 0 mps 588 mmHg 52%
    06:00 -2°C° 0 mm 0 mps 589 mmHg 50%
    07:00 -2°C° 0 mm 0 mps 589 mmHg 48%
    08:00 0°C° 0 mm 0 mps 590 mmHg 44%
    09:00 +1°C° 0 mm 0 mps 591 mmHg 40%
    10:00 +3°C° 0 mm 0 mps 592 mmHg 37%
    11:00 +5°C° 0 mm 1 mps 591 mmHg 38%
    12:00 +5°C° 0 mm 1 mps 591 mmHg 39%
    13:00 +6°C° 0 mm 1 mps 591 mmHg 40%
    14:00 +4°C° 0 mm 1 mps 590 mmHg 46%
    15:00 +3°C° 0 mm 1 mps 589 mmHg 51%
    16:00 +2°C° 0 mm 1 mps 588 mmHg 56%
    17:00 +1°C° 0 mm 1 mps 588 mmHg 56%
    18:00 -1°C° 0 mm 2 mps 588 mmHg 56%
    19:00 -2°C° 0 mm 2 mps 588 mmHg 55%
    20:00 -2°C° 0 mm 2 mps 588 mmHg 54%
    21:00 -1°C° 0 mm 2 mps 588 mmHg 52%
    22:00 -1°C° 0 mm 2 mps 588 mmHg 51%
    23:00 -1°C° 0 mm 2 mps 588 mmHg 50%

    11 December, Wednesday

    Time Temperature Precipitation Wind Pressure Humidity
    00:00 -1°C° 0 mm 2 mps 588 mmHg 50%
    01:00 -1°C° 0 mm 2 mps 588 mmHg 49%
    02:00 -1°C° 0 mm 2 mps 588 mmHg 50%
    03:00 +1°C° 0 mm 1 mps 588 mmHg 51%
    04:00 +1°C° 0 mm 1 mps 588 mmHg 52%
    05:00 +1°C° 0 mm 1 mps 588 mmHg 52%
    06:00 +1°C° 0 mm 1 mps 588 mmHg 53%
    07:00 +1°C° 0 mm 1 mps 588 mmHg 53%
    08:00 +2°C° 0 mm 1 mps 589 mmHg 51%
    09:00 +3°C° 0 mm 1 mps 590 mmHg 48%
    10:00 +4°C° 0 mm 1 mps 590 mmHg 46%
    11:00 +3°C° 0 mm 2 mps 590 mmHg 48%
    12:00 +4°C° 0 mm 2 mps 590 mmHg 51%
    13:00 +3°C° 0 mm 3 mps 590 mmHg 54%
    14:00 +2°C° 0 mm 3 mps 589 mmHg 59%
    15:00 +2°C° 0 mm 2 mps 589 mmHg 65%
    16:00 +1°C° 0 mm 2 mps 589 mmHg 71%
    17:00 -1°C° 0 mm 2 mps 589 mmHg 76%
    18:00 -2°C° 0 mm 2 mps 589 mmHg 81%
    19:00 -3°C° 0 mm 2 mps 589 mmHg 86%
    20:00 -3°C° 0 mm 2 mps 590 mmHg 86%
    21:00 -3°C° 0 mm 2 mps 590 mmHg 87%
    22:00 -1°C° 0 mm 1 mps 590 mmHg 87%
    23:00 -1°C° 0 mm 1 mps 590 mmHg 85%

    12 December, Thursday

    Time Temperature Precipitation Wind Pressure Humidity
    00:00 -3°C° 0 mm 0 mps 590 mmHg 83%
    01:00 -3°C° 0 mm 0 mps 589 mmHg 81%
    02:00 -3°C° 0 mm 0 mps 589 mmHg 78%
    03:00 -1°C° 0 mm 1 mps 589 mmHg 75%
    04:00 -1°C° 0 mm 1 mps 589 mmHg 72%
    05:00 -1°C° 0 mm 1 mps 590 mmHg 70%
    06:00 -1°C° 0 mm 1 mps 590 mmHg 67%
    07:00 -3°C° 0 mm 2 mps 590 mmHg 65%
    08:00 -1°C° 0 mm 2 mps 591 mmHg 59%
    09:00 +2°C° 0 mm 1 mps 592 mmHg 53%
    10:00 +4°C° 0 mm 1 mps 593 mmHg 47%
    11:00 +5°C° 0 mm 1 mps 593 mmHg 44%
    12:00 +6°C° 0 mm 1 mps 593 mmHg 41%
    13:00 +7°C° 0 mm 1 mps 593 mmHg 38%
    14:00 +6°C° 0 mm 1 mps 592 mmHg 44%
    15:00 +4°C° 0 mm 1 mps 591 mmHg 50%
    16:00 +2°C° 0 mm 0 mps 590 mmHg 56%
    17:00 +1°C° 0 mm 0 mps 590 mmHg 56%
    18:00 +1°C° 0 mm 0 mps 590 mmHg 56%
    19:00 0°C° 0 mm 0 mps 590 mmHg 55%
    20:00 0°C° 0 mm 0 mps 590 mmHg 55%
    21:00 0°C° 0 mm 0 mps 590 mmHg 55%
    22:00 0°C° 0 mm 0 mps 590 mmHg 55%
    23:00 0°C° 0 mm 0 mps 590 mmHg 58%
    Show more